| time (UTC) | temp F | wind direction | speed MPH | gust MPH | rain 1hr in | rain 24hr in | rain mn in | humidity % | barometer mb |
| 20260504130511 | 56 | 190 | 1.0 | 4.0 | 0.00 | 0.00 | 0.00 | 61 | 1013.9 |
| 20260504110505 | 41 | 176 | 0.0 | 2.0 | 0.00 | 0.00 | 0.00 | 86 | 1014.7 |
| 20260504100505 | 41 | 279 | 0.0 | 2.0 | 0.00 | 0.00 | 0.00 | 85 | 1014.4 |
| 20260504082005 | 43 | 350 | 0.0 | 0.0 | 0.00 | 0.00 | 0.00 | 82 | 1014.7 |
| 20260504081540 | 43 | 350 | 0.0 | 0.0 | 0.00 | 0.00 | 0.00 | 82 | 1014.7 |
| 20260504081008 | 43 | 350 | 0.0 | 0.0 | 0.00 | 0.00 | 0.00 | 81 | 1014.7 |
| 20260504080506 | 43 | 350 | 0.0 | 0.0 | 0.00 | 0.00 | 0.00 | 80 | 1014.7 |
| 20260504050505 | 42 | 336 | 0.0 | 0.0 | 0.00 | 0.00 | 0.00 | 80 | 1015.1 |
| 20260504050022 | 41 | 336 | 0.0 | 0.0 | 0.00 | 0.00 | 0.00 | 80 | 1015.0 |
| 20260504045507 | 41 | 336 | 0.0 | 0.0 | 0.00 | 0.00 | 0.00 | 80 | 1015.2 |
| 20260504045003 | 41 | 336 | 0.0 | 0.0 | 0.00 | 0.00 | 0.00 | 79 | 1015.2 |
| 20260504044506 | 41 | 336 | 0.0 | 0.0 | 0.00 | 0.00 | 0.00 | 79 | 1015.2 |
| 20260504044003 | 41 | 336 | 0.0 | 0.0 | 0.00 | 0.00 | 0.00 | 79 | 1015.1 |
| 20260504043504 | 41 | 336 | 0.0 | 0.0 | 0.00 | 0.00 | 0.00 | 79 | 1015.2 |
| 20260504043008 | 41 | 336 | 0.0 | 1.0 | 0.00 | 0.00 | 0.00 | 79 | 1015.2 |
| 20260504042505 | 41 | 336 | 0.0 | 2.0 | 0.00 | 0.00 | 0.00 | 78 | 1015.0 |
| 20260504042009 | 41 | 336 | 0.0 | 2.0 | 0.00 | 0.00 | 0.00 | 77 | 1015.2 |
| 20260504041514 | 41 | 336 | 1.0 | 1.0 | 0.00 | 0.00 | 0.00 | 76 | 1015.1 |
| 20260504041006 | 41 | 352 | 0.0 | 0.0 | 0.00 | 0.00 | 0.00 | 75 | 1015.2 |
| 20260504040508 | 41 | 352 | 0.0 | 0.0 | 0.00 | 0.00 | 0.00 | 75 | 1015.1 |
| 20260504040022 | 41 | 352 | 0.0 | 0.0 | 0.00 | 0.00 | 0.00 | 75 | 1015.0 |
| 20260504035505 | 41 | 352 | 0.0 | 0.0 | 0.00 | 0.00 | 0.00 | 76 | 1015.0 |
| 20260504035009 | 41 | 352 | 0.0 | 0.0 | 0.00 | 0.00 | 0.00 | 76 | 1015.0 |
| 20260504034524 | 41 | 352 | 0.0 | 0.0 | 0.00 | 0.00 | 0.00 | 75 | 1015.2 |
| 20260504034009 | 41 | 352 | 0.0 | 0.0 | 0.00 | 0.00 | 0.00 | 75 | 1015.1 |
| 20260504033507 | 41 | 352 | 0.0 | 0.0 | 0.00 | 0.00 | 0.00 | 74 | 1015.0 |
| 20260504033008 | 41 | 352 | 0.0 | 0.0 | 0.00 | 0.00 | 0.00 | 73 | 1015.0 |
| 20260504032504 | 41 | 352 | 0.0 | 0.0 | 0.00 | 0.00 | 0.00 | 73 | 1015.2 |
| 20260504032006 | 42 | 352 | 0.0 | 0.0 | 0.00 | 0.00 | 0.00 | 71 | 1015.0 |
| 20260504031512 | 42 | 352 | 0.0 | 0.0 | 0.00 | 0.00 | 0.00 | 72 | 1015.0 |
| 20260504031004 | 42 | 352 | 0.0 | 0.0 | 0.00 | 0.00 | 0.00 | 70 | 1015.1 |
| 20260504030506 | 42 | 352 | 0.0 | 0.0 | 0.00 | 0.00 | 0.00 | 69 | 1015.2 |
| 20260504030025 | 43 | 352 | 0.0 | 0.0 | 0.00 | 0.00 | 0.00 | 69 | 1015.1 |
| 20260504025504 | 44 | 352 | 0.0 | 2.0 | 0.00 | 0.00 | 0.00 | 66 | 1015.2 |
| 20260504025005 | 44 | 352 | 0.0 | 2.0 | 0.00 | 0.00 | 0.00 | 65 | 1015.0 |
| 20260504024524 | 44 | 352 | 0.0 | 1.0 | 0.00 | 0.00 | 0.00 | 66 | 1015.0 |
| 20260504024008 | 44 | 332 | 0.0 | 1.0 | 0.00 | 0.00 | 0.00 | 67 | 1015.1 |
| 20260504023508 | 44 | 332 | 0.0 | 0.0 | 0.00 | 0.00 | 0.00 | 67 | 1015.0 |
| 20260504023025 | 44 | 332 | 0.0 | 2.0 | 0.00 | 0.00 | 0.00 | 66 | 1015.1 |
| 20260504022509 | 44 | 332 | 0.0 | 2.0 | 0.00 | 0.00 | 0.00 | 65 | 1015.1 |
| 20260504022010 | 44 | 349 | 1.0 | 2.0 | 0.00 | 0.00 | 0.00 | 65 | 1015.1 |
| 20260504021527 | 44 | 174 | 0.0 | 5.0 | 0.00 | 0.00 | 0.00 | 66 | 1015.1 |
| 20260504021005 | 44 | 167 | 3.0 | 5.0 | 0.00 | 0.00 | 0.00 | 64 | 1015.1 |
| 20260504020505 | 45 | 313 | 0.0 | 0.0 | 0.00 | 0.00 | 0.00 | 61 | 1014.9 |
| 20260504020014 | 45 | 313 | 0.0 | 0.0 | 0.00 | 0.00 | 0.00 | 62 | 1014.8 |
| 20260504015505 | 45 | 313 | 0.0 | 0.0 | 0.00 | 0.00 | 0.00 | 62 | 1014.8 |
| 20260504015009 | 46 | 313 | 0.0 | 0.0 | 0.00 | 0.00 | 0.00 | 59 | 1014.7 |
| 20260504014530 | 46 | 313 | 0.0 | 0.0 | 0.00 | 0.00 | 0.00 | 58 | 1014.7 |
| 20260504014008 | 46 | 313 | 0.0 | 0.0 | 0.00 | 0.00 | 0.00 | 57 | 1014.6 |
| 20260504013507 | 47 | 313 | 0.0 | 0.0 | 0.00 | 0.00 | 0.00 | 57 | 1014.6 |
| 20260504013035 | 46 | 313 | 0.0 | 0.0 | 0.00 | 0.00 | 0.00 | 56 | 1014.5 |
| 20260504012508 | 47 | 313 | 0.0 | 0.0 | 0.00 | 0.00 | 0.00 | 57 | 1014.5 |
| 20260504012007 | 47 | 313 | 0.0 | 0.0 | 0.00 | 0.00 | 0.00 | 54 | 1014.4 |
| 20260504011523 | 47 | 313 | 0.0 | 1.0 | 0.00 | 0.00 | 0.00 | 54 | 1014.3 |
| 20260504011008 | 48 | 313 | 0.0 | 1.0 | 0.00 | 0.00 | 0.00 | 55 | 1014.2 |
| 20260504010513 | 49 | 17 | 0.0 | 0.0 | 0.00 | 0.00 | 0.00 | 51 | 1014.1 |
| 20260504010028 | 50 | 17 | 0.0 | 0.0 | 0.00 | 0.00 | 0.00 | 50 | 1014.2 |
| 20260504005510 | 50 | 17 | 0.0 | 1.0 | 0.00 | 0.00 | 0.00 | 48 | 1014.2 |
| 20260504005009 | 51 | 17 | 0.0 | 1.0 | 0.00 | 0.00 | 0.00 | 47 | 1014.2 |
| 20260504004517 | 51 | 17 | 1.0 | 1.0 | 0.00 | 0.00 | 0.00 | 46 | 1014.1 |
| 20260504004006 | 51 | 9 | 0.0 | 0.0 | 0.00 | 0.00 | 0.00 | 45 | 1014.0 |
| 20260504003508 | 52 | 9 | 0.0 | 0.0 | 0.00 | 0.00 | 0.00 | 45 | 1014.0 |
| 20260504003021 | 52 | 9 | 0.0 | 2.0 | 0.00 | 0.00 | 0.00 | 44 | 1014.0 |
| 20260504002510 | 52 | 9 | 0.0 | 2.0 | 0.00 | 0.00 | 0.00 | 46 | 1014.0 |
| 20260504002007 | 53 | 9 | 0.0 | 2.0 | 0.00 | 0.00 | 0.00 | 43 | 1014.0 |
| 20260504001526 | 53 | 9 | 0.0 | 0.0 | 0.00 | 0.00 | 0.00 | 41 | 1014.0 |
| 20260504001006 | 54 | 9 | 0.0 | 0.0 | 0.00 | 0.00 | 0.00 | 42 | 1014.0 |
| 20260504000505 | 54 | 9 | 0.0 | 2.0 | 0.00 | 0.00 | 0.00 | 42 | 1014.1 |
| 20260504000027 | 55 | 9 | 0.0 | 2.0 | 0.00 | 0.00 | 0.00 | 38 | 1014.1 |
| 20260503235507 | 55 | 9 | 0.0 | 2.0 | 0.00 | 0.00 | 0.00 | 40 | 1014.1 |
| 20260503235007 | 56 | 9 | 0.0 | 0.0 | 0.00 | 0.00 | 0.00 | 40 | 1014.1 |
| 20260503234527 | 56 | 9 | 0.0 | 1.0 | 0.00 | 0.00 | 0.00 | 41 | 1014.1 |
| 20260503234008 | 57 | 9 | 0.0 | 2.0 | 0.00 | 0.00 | 0.00 | 40 | 1014.0 |
| 20260503233510 | 58 | 317 | 0.0 | 2.0 | 0.00 | 0.00 | 0.00 | 37 | 1014.0 |
| 20260503233008 | 59 | 227 | 0.0 | 2.0 | 0.00 | 0.00 | 0.00 | 33 | 1014.0 |
| 20260503232504 | 59 | 20 | 0.0 | 3.0 | 0.00 | 0.00 | 0.00 | 32 | 1014.0 |
| 20260503232004 | 60 | 299 | 0.0 | 3.0 | 0.00 | 0.00 | 0.00 | 29 | 1013.9 |
| 20260503231503 | 60 | 317 | 1.0 | 3.0 | 0.00 | 0.00 | 0.00 | 29 | 1013.9 |
| 20260503231004 | 60 | 344 | 1.0 | 5.0 | 0.00 | 0.00 | 0.00 | 30 | 1013.9 |
| 20260503230507 | 60 | 5 | 1.0 | 9.0 | 0.00 | 0.00 | 0.00 | 29 | 1013.7 |
| 20260503230008 | 61 | 13 | 0.0 | 9.0 | 0.00 | 0.00 | 0.00 | 29 | 1013.8 |
| 20260503225507 | 61 | 5 | 1.0 | 8.0 | 0.00 | 0.00 | 0.00 | 28 | 1013.8 |
| 20260503225004 | 61 | 268 | 1.0 | 7.0 | 0.00 | 0.00 | 0.00 | 28 | 1013.7 |
| 20260503224527 | 61 | 255 | 2.0 | 6.0 | 0.00 | 0.00 | 0.00 | 28 | 1013.7 |
| 20260503224005 | 61 | 347 | 1.0 | 8.0 | 0.00 | 0.00 | 0.00 | 27 | 1013.7 |
| 20260503223505 | 61 | 360 | 3.0 | 8.0 | 0.00 | 0.00 | 0.00 | 26 | 1013.7 |
| 20260503223015 | 61 | 159 | 2.0 | 6.0 | 0.00 | 0.00 | 0.00 | 26 | 1013.7 |
| 20260503222502 | 61 | 216 | 1.0 | 9.0 | 0.00 | 0.00 | 0.00 | 26 | 1013.8 |
| 20260503222002 | 62 | 242 | 3.0 | 9.0 | 0.00 | 0.00 | 0.00 | 27 | 1013.8 |
| 20260503221503 | 62 | 241 | 2.0 | 11.0 | 0.00 | 0.00 | 0.00 | 27 | 1013.8 |
| 20260503221005 | 62 | 261 | 3.0 | 11.0 | 0.00 | 0.00 | 0.00 | 27 | 1013.8 |
| 20260503220503 | 62 | 321 | 3.0 | 11.0 | 0.00 | 0.00 | 0.00 | 28 | 1013.7 |
| 20260503220003 | 62 | 221 | 3.0 | 11.0 | 0.00 | 0.00 | 0.00 | 25 | 1014.0 |
| 20260503215506 | 62 | 149 | 3.0 | 7.0 | 0.00 | 0.00 | 0.00 | 28 | 1013.9 |
| 20260503215003 | 62 | 292 | 2.0 | 4.0 | 0.00 | 0.00 | 0.00 | 25 | 1013.8 |
| 20260503214509 | 62 | 280 | 1.0 | 3.0 | 0.00 | 0.00 | 0.00 | 26 | 1013.9 |
| 20260503214005 | 62 | 236 | 1.0 | 5.0 | 0.00 | 0.00 | 0.00 | 27 | 1013.9 |
| 20260503213506 | 62 | 284 | 2.0 | 9.0 | 0.00 | 0.00 | 0.00 | 27 | 1013.8 |
| 20260503213015 | 62 | 329 | 3.0 | 10.0 | 0.00 | 0.00 | 0.00 | 27 | 1013.9 |
| 20260503212506 | 62 | 18 | 3.0 | 10.0 | 0.00 | 0.00 | 0.00 | 29 | 1013.9 |
| 20260503212005 | 61 | 246 | 2.0 | 11.0 | 0.00 | 0.00 | 0.00 | 27 | 1013.9 |
| 20260503211522 | 61 | 188 | 4.0 | 11.0 | 0.00 | 0.00 | 0.00 | 27 | 1014.0 |
| 20260503211003 | 62 | 214 | 4.0 | 11.0 | 0.00 | 0.00 | 0.00 | 27 | 1014.0 |
| 20260503210503 | 62 | 286 | 4.0 | 18.0 | 0.00 | 0.00 | 0.00 | 27 | 1014.0 |
| 20260503210003 | 61 | 50 | 4.0 | 18.0 | 0.00 | 0.00 | 0.00 | 25 | 1013.9 |
| 20260503205503 | 62 | 245 | 5.0 | 12.0 | 0.00 | 0.00 | 0.00 | 28 | 1014.0 |
| 20260503205004 | 62 | 275 | 3.0 | 11.0 | 0.00 | 0.00 | 0.00 | 28 | 1014.1 |
| 20260503204508 | 62 | 345 | 7.0 | 11.0 | 0.00 | 0.00 | 0.00 | 26 | 1014.1 |
| 20260503204004 | 62 | 227 | 3.0 | 12.0 | 0.00 | 0.00 | 0.00 | 28 | 1014.1 |
| 20260503203507 | 61 | 344 | 4.0 | 12.0 | 0.00 | 0.00 | 0.00 | 28 | 1014.1 |
| 20260503203032 | 62 | 160 | 3.0 | 10.0 | 0.00 | 0.00 | 0.00 | 30 | 1014.1 |
| 20260503202508 | 62 | 27 | 4.0 | 10.0 | 0.00 | 0.00 | 0.00 | 30 | 1014.3 |
| 20260503202007 | 61 | 264 | 2.0 | 11.0 | 0.00 | 0.00 | 0.00 | 28 | 1014.2 |
| 20260503201518 | 61 | 360 | 2.0 | 11.0 | 0.00 | 0.00 | 0.00 | 29 | 1014.3 |
| 20260503201009 | 61 | 34 | 3.0 | 11.0 | 0.00 | 0.00 | 0.00 | 29 | 1014.2 |
| 20260503200508 | 61 | 21 | 5.0 | 12.0 | 0.00 | 0.00 | 0.00 | 28 | 1014.4 |
| 20260503200019 | 62 | 268 | 5.0 | 12.0 | 0.00 | 0.00 | 0.00 | 29 | 1014.4 |
| 20260503195509 | 61 | 296 | 5.0 | 12.0 | 0.00 | 0.00 | 0.00 | 30 | 1014.4 |
| 20260503195003 | 61 | 180 | 2.0 | 9.0 | 0.00 | 0.00 | 0.00 | 30 | 1014.5 |
| 20260503194503 | 61 | 240 | 4.0 | 10.0 | 0.00 | 0.00 | 0.00 | 27 | 1014.6 |
| 20260503194004 | 61 | 300 | 3.0 | 10.0 | 0.00 | 0.00 | 0.00 | 29 | 1014.7 |
| 20260503193505 | 60 | 267 | 3.0 | 10.0 | 0.00 | 0.00 | 0.00 | 30 | 1014.8 |
| 20260503193009 | 60 | 294 | 5.0 | 10.0 | 0.00 | 0.00 | 0.00 | 29 | 1014.9 |
| 20260503192504 | 60 | 263 | 3.0 | 9.0 | 0.00 | 0.00 | 0.00 | 31 | 1015.0 |
| 20260503192004 | 60 | 352 | 5.0 | 9.0 | 0.00 | 0.00 | 0.00 | 30 | 1015.1 |
| 20260503191530 | 60 | 352 | 3.0 | 9.0 | 0.00 | 0.00 | 0.00 | 32 | 1015.2 |
| 20260503191007 | 59 | 106 | 1.0 | 9.0 | 0.00 | 0.00 | 0.00 | 35 | 1015.3 |
| 20260503190508 | 58 | 29 | 2.0 | 9.0 | 0.00 | 0.00 | 0.00 | 32 | 1015.4 |
| 20260503190031 | 59 | 248 | 5.0 | 14.0 | 0.00 | 0.00 | 0.00 | 31 | 1015.3 |
| 20260503185508 | 59 | 269 | 3.0 | 14.0 | 0.00 | 0.00 | 0.00 | 32 | 1015.5 |
| 20260503185005 | 60 | 257 | 5.0 | 12.0 | 0.00 | 0.00 | 0.00 | 31 | 1015.5 |
| 20260503184526 | 60 | 18 | 3.0 | 10.0 | 0.00 | 0.00 | 0.00 | 33 | 1015.5 |
| 20260503184005 | 58 | 256 | 3.0 | 17.0 | 0.00 | 0.00 | 0.00 | 34 | 1015.6 |
| 20260503183508 | 58 | 251 | 3.0 | 17.0 | 0.00 | 0.00 | 0.00 | 31 | 1015.7 |
| 20260503183008 | 58 | 273 | 5.0 | 13.0 | 0.00 | 0.00 | 0.00 | 35 | 1015.6 |
| 20260503182505 | 58 | 192 | 3.0 | 13.0 | 0.00 | 0.00 | 0.00 | 33 | 1015.6 |
| 20260503182003 | 58 | 278 | 5.0 | 13.0 | 0.00 | 0.00 | 0.00 | 34 | 1015.7 |
| 20260503181512 | 57 | 230 | 3.0 | 10.0 | 0.00 | 0.00 | 0.00 | 35 | 1015.7 |
| 20260503181005 | 58 | 210 | 4.0 | 11.0 | 0.00 | 0.00 | 0.00 | 34 | 1015.8 |
| 20260503180507 | 59 | 331 | 6.0 | 12.0 | 0.00 | 0.00 | 0.00 | 33 | 1015.7 |
| 20260503180016 | 58 | 271 | 5.0 | 12.0 | 0.00 | 0.00 | 0.00 | 34 | 1015.6 |
| 20260503175506 | 57 | 281 | 2.0 | 10.0 | 0.00 | 0.00 | 0.00 | 34 | 1015.7 |
| 20260503175006 | 58 | 275 | 5.0 | 11.0 | 0.00 | 0.00 | 0.00 | 35 | 1015.8 |
| 20260503174522 | 57 | 313 | 1.0 | 11.0 | 0.00 | 0.00 | 0.00 | 36 | 1015.9 |
| 20260503174008 | 56 | 288 | 4.0 | 9.0 | 0.00 | 0.00 | 0.00 | 34 | 1016.1 |
| 20260503173507 | 56 | 275 | 1.0 | 9.0 | 0.00 | 0.00 | 0.00 | 35 | 1016.1 |
| 20260503173024 | 57 | 340 | 2.0 | 13.0 | 0.00 | 0.00 | 0.00 | 34 | 1016.0 |
| 20260503172510 | 56 | 59 | 6.0 | 13.0 | 0.00 | 0.00 | 0.00 | 35 | 1016.1 |
| 20260503172011 | 57 | 265 | 6.0 | 12.0 | 0.00 | 0.00 | 0.00 | 34 | 1016.1 |
| 20260503171510 | 55 | 177 | 0.0 | 12.0 | 0.00 | 0.00 | 0.00 | 38 | 1016.2 |
| 20260503171003 | 56 | 323 | 6.0 | 12.0 | 0.00 | 0.00 | 0.00 | 33 | 1016.3 |
| 20260503170506 | 56 | 306 | 0.0 | 12.0 | 0.00 | 0.00 | 0.00 | 34 | 1016.2 |
| 20260503151006 | 52 | 28 | 3.0 | 11.0 | 0.00 | 0.00 | 0.00 | 39 | 1017.4 |
| 20260503150509 | 51 | 349 | 5.0 | 13.0 | 0.00 | 0.00 | 0.00 | 41 | 1017.3 |